Tracking 25953 objects as of 15-Aug-2022
HD Live streaming from Space Station
objects crossing your sky now

STARLINK-1195

Track STARLINK-1195 now!
10-day predictions
STARLINK-1195 is classified as:


NORAD ID: 45102
Int'l Code: 2020-006BK
Perigee: 553.4 km
Apogee: 555.3 km
Inclination: 53.1 °
Period: 95.6 minutes
Semi major axis: 6925 km
RCS: Unknown
Launch date: January 29, 2020
Source: United States (US)
Launch site: AIR FORCE EASTERN TEST RANGE (AFETR)
aabbcc
Your satellite tracking list
Your tracking list is empty




NASA's NSSDC Master Catalog

Two Line Element Set (TLE):
1 45102U 20006BL  22227.40546896  .00001001  00000-0  86071-4 0  9995
2 45102  53.0556 332.8003 0001390  96.9256 263.1891 15.06391380140738
Source of the keplerian elements: AFSPC